Location: ???????
(56.2167°N, 38.0500°E)
Time: 06:17:04
(UTC+00:00)

NOSS 3-1 (A) - Pass Details

Date: 19 May 2025
Orbit: 667 x 1541 km, 63.4° (Epoch: 12 June)

Event Time Altitude Azimuth Distance (km) Brightness Sun altitude
Rises 20:50:29 0° 232° (SW) 3,135 5.9 -13.5°
Reaches altitude 10° 20:52:40 10° 232° (SW) 2,285 5.2 -13.5°
Maximum altitude 20:57:53 88° 324° (NW) 867 3.3 -13.6°
Drops below altitude 10° 21:04:20 10° 53° (NE) 2,803 6.3 -13.7°
Sets 21:07:15 0° 54° (NE) 3,900 7.1 -13.7°
